Concord, CA

12:41 AM PDT on July 25, 2017 (GMT -0700)
Buchanan

Weather History for KCCR - April, 2013

Change the Weather History Date:

Saturday, April 20, 2013

  Actual Average Record
Temperature  
Mean Temperature 66 °F 59 °F  
Max Temperature 82 °F 71 °F 93 °F (2009)
Min Temperature 50 °F 48 °F 40 °F (2008)
Degree Days  
Heating Degree Days 0    
Month to date heating degree days 101  
Since 1 July heating degree days 2334  
Cooling Degree Days 1    
Month to date cooling degree days 2  
Year to date cooling degree days 2  
Growing Degree Days 16 (Base 50)    
Moisture  
Dew Point 42 °F    
Average Humidity 49    
Maximum Humidity 77    
Minimum Humidity 20    
Precipitation  
Precipitation 0.00 in - 0.65 in (2001)
Month to date precipitation 0.52  
Year to date precipitation 1.92  
Since 1 July precipitation 11.56  
Sea Level Pressure  
Sea Level Pressure 30.01 in    
Wind  
Wind Speed 5 mph (WSW)    
Max Wind Speed 15 mph    
Max Gust Speed 20 mph    
Visibility 10 miles    
Events      
T = Trace of Precipitation, MM = Missing Value Source: NWS Daily Summary

Daily Weather History Graph

Daily Weather History Graph

Search for Another Location

Airport or City:

Trip Planner

Search our weather history database for the weather conditions in past years. The results will help you decide how hot, cold, wet, or windy it might be!

Date:

Astronomy

Apr. 20, 2013 Rise Set
Actual Time 6:25 AM PDT 7:49 PM PDT
Civil Twilight 5:58 AM PDT 8:16 PM PDT
Nautical Twilight 5:25 AM PDT 8:49 PM PDT
Astronomical Twilight 4:50 AM PDT 9:24 PM PDT
Moon 2:43 PM PDT (4/20) 3:12 AM PDT (4/20)
Length of Visible Light 14h 18m
Length of Day
13h 23m
Waxing Gibbous, 72% of the Moon is Illuminated
Apr 20
Waxing Gibbous
Apr 25
Full
May 2
Last Quarter
May 9
New
May 17
First Quarter

Hourly Weather History & Observations

Time (PDT) Temp. Dew Point Humidity Pressure Visibility Wind Dir Wind Speed Gust Speed Precip Events Conditions
12:53 AM 61.0 °F 46.0 °F 58% 30.06 in 10.0 mi SW 5.8 mph - N/A   Clear
1:53 AM 59.0 °F 45.0 °F 60% 30.06 in 10.0 mi SW 6.9 mph - N/A   Clear
2:53 AM 55.9 °F 45.0 °F 67% 30.06 in 10.0 mi Calm Calm - N/A   Clear
3:53 AM 54.0 °F 45.0 °F 72% 30.07 in 10.0 mi SSE 8.1 mph - N/A   Clear
4:53 AM 53.1 °F 45.0 °F 74% 30.07 in 10.0 mi ESE 4.6 mph - N/A   Clear
5:53 AM 52.0 °F 45.0 °F 77% 30.07 in 10.0 mi South 3.5 mph - N/A   Clear
6:53 AM 51.1 °F 44.1 °F 77% 30.08 in 10.0 mi SSE 3.5 mph - N/A   Clear
7:53 AM 57.0 °F 46.0 °F 67% 30.08 in 10.0 mi Calm Calm - N/A   Clear
8:53 AM 62.1 °F 43.0 °F 50% 30.07 in 10.0 mi Calm Calm - N/A   Clear
9:53 AM 66.9 °F 41.0 °F 39% 30.06 in 10.0 mi Calm Calm - N/A   Clear
10:53 AM 72.0 °F 39.0 °F 30% 30.05 in 10.0 mi Variable 4.6 mph - N/A   Clear
11:53 AM 75.0 °F 35.1 °F 23% 30.03 in 10.0 mi NNE 6.9 mph - N/A   Clear
12:53 PM 77.0 °F 35.1 °F 22% 30.01 in 10.0 mi Variable 5.8 mph - N/A   Clear
1:53 PM 77.0 °F 37.0 °F 24% 29.99 in 10.0 mi Variable 3.5 mph - N/A   Clear
2:53 PM 79.0 °F 37.0 °F 22% 29.97 in 10.0 mi WSW 4.6 mph - N/A   Clear
3:53 PM 81.0 °F 36.0 °F 20% 29.95 in 10.0 mi NW 8.1 mph - N/A   Clear
4:53 PM 80.1 °F 39.9 °F 24% 29.94 in 10.0 mi WNW 10.4 mph - N/A   Clear
5:53 PM 77.0 °F 42.1 °F 29% 29.93 in 10.0 mi WNW 11.5 mph - N/A   Clear
6:53 PM 72.0 °F 41.0 °F 33% 29.93 in 10.0 mi West 13.8 mph - N/A   Clear
7:53 PM 69.1 °F 41.0 °F 36% 29.95 in 10.0 mi West 8.1 mph - N/A   Clear
8:53 PM 66.0 °F 41.0 °F 40% 29.96 in 10.0 mi West 4.6 mph - N/A   Clear
9:53 PM 61.0 °F 44.1 °F 54% 29.98 in 10.0 mi Calm Calm - N/A   Clear
10:53 PM 60.1 °F 42.1 °F 51% 29.97 in 10.0 mi Calm Calm - N/A   Clear
11:53 PM 57.0 °F 46.9 °F 69% 29.98 in 10.0 mi Calm Calm - N/A   Clear